User: anonymous   Login
Location: Martley
(52.2333°N, 2.3667°W)
Time: 13:00:19
(UTC+00:00)
Language:

Cosmos 1515 - Orbit

View from above orbital plane
View from above orbital plane
View from above satellite
View from above satellite

Ground track
Ground track

The orbit data is extracted from the following two-line orbital elements,

1 14551U 83122A   20052.68369185 +.00000511 +00000-0 +23432-4 0  9992
2 14551 082.4981 284.7636 0008334 123.8887 296.1310 15.18110287718126
Epoch (UTC): 21 February 2020 16:24:30
Eccentricity: 0.0008334
inclination: 82.4981°
perigee height: 506 km
apogee height: 517 km
right ascension of ascending node: 284.7636°
argument of perigee: 123.8887°
revolutions per day: 15.18110287
mean anomaly at epoch: 296.1310°
orbit number at epoch: 71812

The dashed part of the orbit path shows where the satellite is in the earth's shadow,  

DLR